ORBCOMM FM14 [-]

Last updated on Fri Dec 29 2023 00:02:54 GMT+0000 (Coordinated Universal Time)

1 25419U 98046G 23361.69780000 .00001816 00000+0 67547-3 0 9990 2 25419 44.9946 201.1309 0002919 97.9605 17.3973 14.35392503326895
UTC large
Height (km)
Speed (km/s)
/
Latitude / Longitude
Inclination (degrees)
Orbital Period (minutes)
Azimuth
Elevation
Range (km)
Doppler Factor

Next 0 passes for location: London (51.5072 / 0.1276)

Sorry there are no passes over London.